COSMOS 1610

导读

COSMOS 1610(宇宙1610)是独联体(CIS,实际由苏联研制)于1984年11月15日发射的卫星,属于苏联"宇宙"(COSMOS)卫星系列。该系列卫星覆盖多种用途,涵盖科学实验、航天技术验证与军事任务,冷战时期承担战略侦察、情报收集等任务。作为苏联航天体系的典型产物,它服务于空间技术测试与对地观测需求,是苏联航天部署的重要组成部分,目前已完成任务生命周期。

Basic Information
目录编号:
15398
目录名称:
COSMOS 1610
国际标识:
1984-118A
轨道中心:
EARTH
卫星名称:
COSMOS 1610
卫星全名:
--
卫星状态:
在轨 (已飞行15230 天)
发射日期:
1984-11-15 UTC
国别 :
俄罗斯(独联体) (CIS)
星等 :
--
Orbit Information
数据来源 国际轨道数据 AOE轨道数据
星历时间 2026-07-28T12:15:39+0800
10小时前
查看轨道信息
2026-07-26T01:00:00+0800
2天前
查看轨道信息
半长轴 7363.521km 7363.52km
偏心率 0.00326 0.0032791
轨道倾角 82.949° 82.949°
近地点辐角 27.449° 34.109°
升交点赤经 103.231° 105.056°
平近点角 82.828° 109.722°
近地点 961.378km 961.237km
远地点 1009.39km 1009.529km
周期 104.806分钟 104.806分钟
每日圈数 13.739614 13.739617
Detailed Information
使用方式:
暂无
2D Orbit Map
3D Orbit Map
Orbit Altitude Analysis Chart
Orbit Inclination Analysis Chart
Orbit Comprehensive Analysis Chart
View Comprehensive Chart